| time (UTC) | temp F | wind direction | speed MPH | gust MPH | rain 1hr in | rain 24hr in | rain mn in | humidity % | barometer mb |
| 20260503171501 | 69 | 61 | 5.0 | 9.0 | 0.00 | 0.00 | 0.00 | 64 | 1011.0 |
| 20260503170117 | 68 | 61 | 2.0 | 6.0 | 0.00 | 0.00 | 0.00 | 69 | 1010.8 |
| 20260503160104 | 66 | 85 | 0.0 | 3.0 | 0.00 | 0.00 | 0.00 | 73 | 1011.2 |
| 20260503081504 | 58 | 13 | 0.0 | 3.0 | 0.00 | 0.00 | 0.00 | 86 | 1011.8 |
| 20260503071612 | 59 | 13 | 0.0 | 2.0 | 0.00 | 0.00 | 0.00 | 84 | 1012.2 |
| 20260503054608 | 57 | 32 | 0.0 | 2.0 | 0.00 | 0.00 | 0.00 | 87 | 1012.1 |
| 20260503053051 | 57 | 35 | 0.0 | 1.0 | 0.00 | 0.00 | 0.00 | 86 | 1012.3 |
| 20260503051550 | 58 | 35 | 0.0 | 2.0 | 0.00 | 0.00 | 0.00 | 85 | 1012.2 |
| 20260503050049 | 59 | 35 | 0.0 | 1.0 | 0.00 | 0.00 | 0.00 | 84 | 1012.2 |
| 20260503044552 | 59 | 35 | 0.0 | 1.0 | 0.00 | 0.00 | 0.00 | 83 | 1012.2 |
| 20260503043055 | 60 | 35 | 1.0 | 2.0 | 0.00 | 0.00 | 0.00 | 82 | 1012.1 |
| 20260503041548 | 60 | 57 | 1.0 | 3.0 | 0.00 | 0.00 | 0.00 | 80 | 1012.1 |
| 20260503040054 | 61 | 57 | 0.0 | 1.0 | 0.00 | 0.00 | 0.00 | 79 | 1012.1 |
| 20260503034549 | 62 | 56 | 0.0 | 2.0 | 0.00 | 0.00 | 0.00 | 76 | 1011.6 |
| 20260503033047 | 63 | 57 | 1.0 | 3.0 | 0.00 | 0.00 | 0.00 | 75 | 1011.4 |
| 20260503031546 | 63 | 55 | 1.0 | 3.0 | 0.00 | 0.00 | 0.00 | 74 | 1011.2 |
| 20260503030045 | 63 | 317 | 0.0 | 3.0 | 0.00 | 0.00 | 0.00 | 75 | 1011.1 |
| 20260503024546 | 62 | 314 | 2.0 | 4.0 | 0.00 | 0.00 | 0.00 | 76 | 1010.9 |
| 20260503023047 | 63 | 314 | 0.0 | 3.0 | 0.00 | 0.00 | 0.00 | 77 | 1011.1 |
| 20260503021542 | 63 | 321 | 1.0 | 4.0 | 0.00 | 0.00 | 0.00 | 75 | 1011.5 |
| 20260503020040 | 63 | 76 | 0.0 | 2.0 | 0.00 | 0.00 | 0.00 | 74 | 1012.1 |
| 20260503014539 | 64 | 88 | 3.0 | 9.0 | 0.00 | 0.00 | 0.00 | 73 | 1012.7 |
| 20260503013043 | 65 | 101 | 2.0 | 8.0 | 0.00 | 0.00 | 0.00 | 71 | 1012.5 |
| 20260503011539 | 65 | 133 | 1.0 | 3.0 | 0.00 | 0.00 | 0.00 | 70 | 1012.0 |
| 20260503010038 | 65 | 136 | 1.0 | 3.0 | 0.00 | 0.00 | 0.00 | 71 | 1011.9 |
| 20260503004540 | 65 | 113 | 0.0 | 3.0 | 0.00 | 0.00 | 0.00 | 70 | 1011.7 |
| 20260503003045 | 65 | 87 | 0.0 | 3.0 | 0.00 | 0.00 | 0.00 | 72 | 1011.9 |
| 20260503001544 | 65 | 88 | 1.0 | 4.0 | 0.00 | 0.00 | 0.00 | 72 | 1011.6 |
| 20260503000041 | 65 | 80 | 2.0 | 5.0 | 0.00 | 0.00 | 0.00 | 70 | 1011.5 |
| 20260502234547 | 65 | 119 | 1.0 | 4.0 | 0.00 | 0.00 | 0.00 | 72 | 1011.6 |
| 20260502233039 | 65 | 9 | 1.0 | 5.0 | 0.00 | 0.00 | 0.00 | 71 | 1011.8 |
| 20260502231529 | 64 | 23 | 1.0 | 6.0 | 0.00 | 0.00 | 0.00 | 72 | 1012.1 |
| 20260502230032 | 63 | 9 | 0.0 | 6.0 | 0.00 | 0.00 | 0.00 | 72 | 1012.2 |
| 20260502224524 | 62 | 94 | 1.0 | 6.0 | 0.00 | 0.00 | 0.00 | 73 | 1012.5 |
| 20260502223033 | 62 | 105 | 1.0 | 4.0 | 0.00 | 0.00 | 0.00 | 73 | 1012.8 |
| 20260502221520 | 62 | 113 | 1.0 | 4.0 | 0.00 | 0.00 | 0.00 | 74 | 1013.0 |
| 20260502220023 | 62 | 34 | 1.0 | 6.0 | 0.00 | 0.00 | 0.00 | 74 | 1013.0 |
| 20260502214517 | 63 | 101 | 2.0 | 8.0 | 0.00 | 0.00 | 0.00 | 75 | 1013.1 |
| 20260502213014 | 62 | 9 | 3.0 | 8.0 | 0.00 | 0.00 | 0.00 | 73 | 1013.3 |
| 20260502211513 | 62 | 103 | 2.0 | 6.0 | 0.00 | 0.00 | 0.00 | 74 | 1013.4 |
| 20260502210009 | 61 | 5 | 3.0 | 10.0 | 0.00 | 0.00 | 0.00 | 74 | 1013.6 |
| 20260502204507 | 61 | 11 | 4.0 | 8.0 | 0.00 | 0.00 | 0.00 | 75 | 1013.7 |
| 20260502203003 | 60 | 22 | 4.0 | 10.0 | 0.00 | 0.00 | 0.00 | 76 | 1014.0 |
| 20260502201501 | 59 | 5 | 2.0 | 9.0 | 0.00 | 0.00 | 0.00 | 79 | 1014.1 |
| 20260502200100 | 58 | 55 | 1.0 | 6.0 | 0.00 | 0.00 | 0.00 | 78 | 1014.3 |
| 20260502194602 | 58 | 347 | 2.0 | 5.0 | 0.00 | 0.00 | 0.00 | 77 | 1014.7 |
| 20260502193056 | 58 | 30 | 3.0 | 6.0 | 0.00 | 0.00 | 0.00 | 75 | 1014.8 |
| 20260502191558 | 57 | 324 | 3.0 | 8.0 | 0.00 | 0.00 | 0.00 | 78 | 1014.8 |
| 20260502190053 | 57 | 62 | 3.0 | 9.0 | 0.00 | 0.00 | 0.00 | 77 | 1015.1 |
| 20260502184554 | 56 | 9 | 3.0 | 10.0 | 0.00 | 0.00 | 0.00 | 78 | 1015.2 |
| 20260502183149 | 55 | 360 | 2.0 | 5.0 | 0.00 | 0.00 | 0.00 | 78 | 1015.3 |
| 20260502181546 | 54 | 61 | 1.0 | 5.0 | 0.00 | 0.00 | 0.00 | 80 | 1015.2 |